Погода в Еланской

Россия / Ростовская область     49°36′53″N   42°02′27″E
темп.,
°C
ветер,
м/с
пор.,
м/с
влажн.,
%
обл.,
%
осадки,
мм/ч
давл.,
гПа
погр.,
м
6 марта, сб
сб600:000ссв2399100 0.1 1014140
03:00−1св3498100 1.1 1015207
06:00−1св4697100 0.9 1014291
09:00−1ссв4696100 2.1 1015369
12:00−1с4695100 1.3 1014499
15:00−1с4694100 2.0 1013493
18:00−2ссз4697100 1.1 1014380
21:00−3сз5994100 2.4 1015608
7 марта, вс
вс700:00−5сз6118781 0.2 1016548
03:00−6сз5118272 0.2 1018604
06:00−7зсз38820 0.0 1020299
09:00−4з68730 0.0 1021969
12:00−2зюз8117126 0.0 10181240
15:00−1зюз8126664 0.1 10151270
18:00−2юз7147094 0.0 1013868
21:00−2юз9186751 0.0 1012890
8 марта, пн
пн800:00−2зюз9177519 0.0 1010853
03:00−1зюз9148149 0.0 1010947
06:00−1зюз7128299 0.0 1009816
09:00−1зюз9138399 0.0 1009924
12:000зюз10158599 0.1 10071263
15:00+1зюз91480100 0.2 10071248
18:00−1з4107499 1.4 1008899
21:00−5сз5126798 1.4 1012555
9 марта, вт
вт900:00−6сз367655 0.0 1014175
03:00−7зсз228128 0.0 101430
06:00−8з22830 0.0 101536
09:00−6зсз34740 0.0 1016437
12:00−3з34590 0.0 10161073
15:00−2з46545 0.0 10161558
18:00−4зсз367180 0.1 1016185
21:00−5сз589374 0.1 1019490
10 марта, ср
ср1000:00−7ссз487798 0.1 1020470
03:00−8ссз358199 0.2 1022438
06:00−9сз358288 0.0 1023191
09:00−8зсз347644 0.0 1024526
12:00−5з45570 0.0 1023704
15:00−3зюз465218 0.0 1022807
18:00−5зюз366235 0.0 1021105
21:00−6зюз366556 0.0 102199